Location: Bluff Heights
(33.7692°N, 118.1592°W)
Time: 23:32:31
(UTC+00:00)

AO-73 - Pass Details

Date: 03 October 2021
Orbit: 580 x 662 km, 97.6° (Epoch: 20 October)

Event Time Altitude Azimuth Distance (km) Brightness Sun altitude
Rises 12:26:26 0° 12° (NNE) 2,819 ? -17.9°
Reaches altitude 10° 12:28:37 10° 12° (NNE) 1,908 ? -17.5°
Maximum altitude 12:32:45 87° 100° (E) 586 ? -16.6°
Drops below altitude 10° 12:36:50 10° 192° (SSW) 1,886 ? -15.8°
Sets 12:38:58 0° 192° (SSW) 2,783 ? -15.3°
